Home   Weather   Bottrop   Past weeks

Flag for Germany Past Weather in Bottrop, North Rhine-Westphalia, Germany — Yesterday and Last 2 Weeks

48 °F

Drizzle. Fog.

Feels Like: 46 °F
Forecast: 37 / 53 °F
Wind: 6 mph from West

Location: Duesseldorf

Current Time: Oct 22, 2016 at 5:42:41 AM

Latest Report: Oct 22, 2016 at 5:20 AM

Visibility: 3 mi

Pressure: 29.89 "Hg

Humidity: 94%

Dew Point: 46 °F

Location of BottropLocation

Past Weather in Bottrop — Graph


Bottrop Temperature Yesterday

Maximum temperature yesterday: 48 °F (at 11:50 PM)
Minimum temperature yesterday: 45 °F (at 12:20 AM)
Average temperature yesterday: 46 °F

High & Low Weather Summary for the Past Weeks

High66 °F (Oct 16, 2:20 PM)100% (Oct 8, 10:20 PM)30.30 "Hg (Oct 8, 10:20 PM)
Low34 °F (Oct 11, 6:20 AM)51% (Oct 8, 2:20 PM)29.65 "Hg (Oct 15, 1:20 AM)
Average50 °F85%30.06 "Hg
* Reported Oct 7 4:20 AM — Oct 22 4:20 AM, Bottrop, Weather by CustomWeather, © 2016

Note: Actual official high and low records may vary slightly from our data, if they occured in-between our weather recording intervals... More about our weather records


Bottrop Weather History for the Previous 24 Hours

Scroll right to see more
Time TempWeatherWind HumidityBarometerVisibility
4:20 AM
Sat, Oct 22
48 °FDrizzle. Fog.7 mph100%29.89 "Hg2 mi
3:50 AM48 °FFog.6 mph100%29.89 "Hg2 mi
3:20 AM48 °FFog.7 mph94%29.92 "Hg2 mi
2:50 AM48 °FFog.7 mph94%29.92 "Hg2 mi
2:20 AM46 °FFog.6 mph100%29.92 "Hg2 mi
1:50 AM46 °FFog.7 mph100%29.92 "Hg2 mi
1:20 AM46 °FFog.7 mph100%29.92 "Hg2 mi
12:50 AM46 °FFog.7 mph100%29.92 "Hg3 mi
12:20 AM48 °FFog.6 mph94%29.92 "Hg3 mi
11:50 PM
Fri, Oct 21
48 °FPartly cloudy.7 mph94%29.92 "Hg4 mi
11:20 PM46 °FMostly cloudy.8 mph100%29.92 "Hg4 mi
10:50 PM46 °FPartly cloudy.6 mph100%29.95 "Hg4 mi
10:20 PM46 °FPartly cloudy.6 mph100%29.95 "Hg4 mi
9:50 PM46 °FFog.7 mph100%29.95 "Hg2 mi
9:20 PM46 °FDrizzle. Fog.8 mph93%29.95 "Hg2 mi
8:50 PM46 °FDrizzle. Fog.9 mph93%29.95 "Hg3 mi
8:20 PM45 °FDrizzle. Mostly cloudy.12 mph100%29.95 "Hg4 mi
7:50 PM45 °FDrizzle. Mostly cloudy.13 mph100%29.95 "Hg4 mi
7:20 PM46 °FDrizzle. Overcast.12 mph87%29.95 "Hg5 mi
6:50 PM45 °FPartly cloudy.9 mph93%29.95 "Hg5 mi
6:20 PM46 °FDrizzle. Broken clouds.10 mph87%29.98 "Hg5 mi
5:50 PM46 °FDrizzle. Overcast.10 mph87%29.98 "Hg6 mi
5:20 PM46 °FPartly sunny.9 mph87%29.98 "HgN/A
4:50 PM46 °FDrizzle. Partly sunny.10 mph82%29.98 "HgN/A
4:20 PM46 °FLight rain. Mostly cloudy.10 mph82%29.98 "HgN/A
3:50 PM46 °FLight rain. Overcast.9 mph82%29.98 "HgN/A
3:20 PM46 °FBroken clouds.7 mph82%29.98 "HgN/A
2:50 PM46 °FPartly sunny.7 mph82%30.01 "HgN/A
2:20 PM46 °FPartly sunny.8 mph82%30.01 "HgN/A
1:50 PM46 °FPartly sunny.7 mph82%30.01 "HgN/A
1:20 PM46 °FPartly sunny.9 mph82%30.01 "HgN/A
12:50 PM46 °FBroken clouds.8 mph82%30.01 "HgN/A
12:20 PM46 °FPartly sunny.7 mph82%30.01 "Hg6 mi
11:50 AM46 °FPartly sunny.6 mph82%30.01 "Hg6 mi
11:20 AM46 °FPartly sunny.6 mph82%30.01 "Hg6 mi
10:50 AM45 °FPartly sunny.7 mph87%30.01 "Hg6 mi
10:20 AM46 °FPartly sunny.9 mph87%30.01 "Hg6 mi
9:50 AM46 °FScattered clouds.7 mph87%30.01 "Hg4 mi
9:20 AM45 °FPassing clouds.2 mph93%29.98 "Hg4 mi
8:50 AM45 °FBroken clouds.6 mph93%29.98 "Hg4 mi
8:20 AM45 °FBroken clouds.6 mph93%29.98 "Hg4 mi
7:50 AM45 °FPartly cloudy.6 mph93%29.98 "Hg4 mi
7:20 AM45 °FPartly cloudy.7 mph93%29.98 "Hg4 mi
6:50 AM45 °FPartly cloudy.7 mph100%29.98 "Hg4 mi
6:20 AM45 °FFog.8 mph100%29.98 "Hg2 mi
5:50 AM45 °FFog.6 mph100%29.98 "Hg2 mi
5:20 AM45 °FFog.6 mph100%29.98 "Hg3 mi
Weather by CustomWeather, © 2016

See weather overviewHow to use our weather pages